owner,sensor,date,latitude,longitude,vertical_datum,mass_concentration_of_oxygen_in_sea_water,qcFlag 
SCCF RECON,ioos:station:SCCF:11:1,2013-04-01T00:00:00Z,26.4679,-82.0631,1.76,8.21,1111122 
SCCF RECON,ioos:station:SCCF:11:1,2013-04-01T01:00:00Z,26.4679,-82.0631,1.64,8.05,1111122 
SCCF RECON,ioos:station:SCCF:11:1,2013-04-01T02:00:00Z,26.4679,-82.0631,1.503,7.86,1111122 
SCCF RECON,ioos:station:SCCF:11:1,2013-04-01T03:00:00Z,26.4679,-82.0631,1.405,7.52,1111122 
SCCF RECON,ioos:station:SCCF:11:1,2013-04-01T04:00:00Z,26.4679,-82.0631,1.373,7.27,1111122 
SCCF RECON,ioos:station:SCCF:11:1,2013-04-01T05:00:00Z,26.4679,-82.0631,1.45,7.0,1111122 
SCCF RECON,ioos:station:SCCF:11:1,2013-04-01T06:00:00Z,26.4679,-82.0631,1.6,7.29,1111122 
SCCF RECON,ioos:station:SCCF:11:1,2013-04-01T07:00:00Z,26.4679,-82.0631,1.72,7.0,1111122 
SCCF RECON,ioos:station:SCCF:11:1,2013-04-01T08:00:00Z,26.4679,-82.0631,1.79,6.92,1111122 
SCCF RECON,ioos:station:SCCF:11:1,2013-04-01T09:00:00Z,26.4679,-82.0631,1.866,7.12,1111122 
SCCF RECON,ioos:station:SCCF:11:1,2013-04-01T10:00:00Z,26.4679,-82.0631,1.92,6.64,1111122 
SCCF RECON,ioos:station:SCCF:11:1,2013-04-01T11:00:00Z,26.4679,-82.0631,1.93,6.93,1111122 
SCCF RECON,ioos:station:SCCF:11:1,2013-04-01T12:00:00Z,26.4679,-82.0631,1.87,6.95,1111122 
SCCF RECON,ioos:station:SCCF:11:1,2013-04-01T13:00:00Z,26.4679,-82.0631,1.82,6.7,1111122 
SCCF RECON,ioos:station:SCCF:11:1,2013-04-01T14:00:00Z,26.4679,-82.0631,1.831,6.64,1111122 
SCCF RECON,ioos:station:SCCF:11:1,2013-04-01T15:00:00Z,26.4679,-82.0631,1.84,6.8,1111122 
SCCF RECON,ioos:station:SCCF:11:1,2013-04-01T16:00:00Z,26.4679,-82.0631,1.87,7.04,1111122 
SCCF RECON,ioos:station:SCCF:11:1,2013-04-01T17:00:00Z,26.4679,-82.0631,1.93,7.55,1111122 
SCCF RECON,ioos:station:SCCF:11:1,2013-04-01T18:00:00Z,26.4679,-82.0631,2.01,7.46,1111122 
SCCF RECON,ioos:station:SCCF:11:1,2013-04-01T19:00:00Z,26.4679,-82.0631,2.08,7.93,1111122 
SCCF RECON,ioos:station:SCCF:11:1,2013-04-01T20:00:00Z,26.4679,-82.0631,2.139,7.79,1111122 
SCCF RECON,ioos:station:SCCF:11:1,2013-04-01T21:00:00Z,26.4679,-82.0631,2.157,8.14,1111122 
SCCF RECON,ioos:station:SCCF:11:1,2013-04-01T22:00:00Z,26.4679,-82.0631,2.107,7.9,1111122 
SCCF RECON,ioos:station:SCCF:11:1,2013-04-01T23:00:00Z,26.4679,-82.0631,2.013,8.61,1111122 
SCCF RECON,ioos:station:SCCF:11:1,2013-04-02T00:00:00Z,26.4679,-82.0631,1.88,8.36,1111122 
SCCF RECON,ioos:station:SCCF:11:1,2013-04-02T01:00:00Z,26.4679,-82.0631,1.76,7.91,1111122 
SCCF RECON,ioos:station:SCCF:11:1,2013-04-02T02:00:00Z,26.4679,-82.0631,1.648,7.74,1111122 
SCCF RECON,ioos:station:SCCF:11:1,2013-04-02T03:00:00Z,26.4679,-82.0631,1.54,7.48,1111122 
SCCF RECON,ioos:station:SCCF:11:1,2013-04-02T04:00:00Z,26.4679,-82.0631,1.44,7.17,1111122 
SCCF RECON,ioos:station:SCCF:11:1,2013-04-02T05:00:00Z,26.4679,-82.0631,1.386,6.9,1111122 
SCCF RECON,ioos:station:SCCF:11:1,2013-04-02T06:00:00Z,26.4679,-82.0631,1.42,6.81,1111122 
SCCF RECON,ioos:station:SCCF:11:1,2013-04-02T07:00:00Z,26.4679,-82.0631,1.53,6.6,1111122 
SCCF RECON,ioos:station:SCCF:11:1,2013-04-02T08:00:00Z,26.4679,-82.0631,1.658,6.59,1111122 
SCCF RECON,ioos:station:SCCF:11:1,2013-04-02T09:00:00Z,26.4679,-82.0631,1.74,6.8,1111122 
SCCF RECON,ioos:station:SCCF:11:1,2013-04-02T10:00:00Z,26.4679,-82.0631,1.81,6.68,1111122 
SCCF RECON,ioos:station:SCCF:11:1,2013-04-02T11:00:00Z,26.4679,-82.0631,1.88,6.53,1111122 
SCCF RECON,ioos:station:SCCF:11:1,2013-04-02T12:00:00Z,26.4679,-82.0631,1.89,6.34,1111122 
SCCF RECON,ioos:station:SCCF:11:1,2013-04-02T13:00:00Z,26.4679,-82.0631,1.87,6.48,1111122 
SCCF RECON,ioos:station:SCCF:11:1,2013-04-02T14:00:00Z,26.4679,-82.0631,1.856,6.57,1111122 
SCCF RECON,ioos:station:SCCF:11:1,2013-04-02T15:00:00Z,26.4679,-82.0631,1.849,6.48,1111122 
SCCF RECON,ioos:station:SCCF:11:1,2013-04-02T16:00:00Z,26.4679,-82.0631,1.83,6.7,1111122 
SCCF RECON,ioos:station:SCCF:11:1,2013-04-02T17:00:00Z,26.4679,-82.0631,1.814,7.24,1111122 
SCCF RECON,ioos:station:SCCF:11:1,2013-04-02T18:00:00Z,26.4679,-82.0631,1.843,7.68,1111122 
SCCF RECON,ioos:station:SCCF:11:1,2013-04-02T19:00:00Z,26.4679,-82.0631,1.926,7.79,1111122 
SCCF RECON,ioos:station:SCCF:11:1,2013-04-02T20:00:00Z,26.4679,-82.0631,2.019,7.63,1111122 
SCCF RECON,ioos:station:SCCF:11:1,2013-04-02T21:00:00Z,26.4679,-82.0631,2.075,7.92,1111122 
SCCF RECON,ioos:station:SCCF:11:1,2013-04-02T22:00:00Z,26.4679,-82.0631,2.08,7.93,1111122 
SCCF RECON,ioos:station:SCCF:11:1,2013-04-02T23:00:00Z,26.4679,-82.0631,2.053,8.03,1111122 
SCCF RECON,ioos:station:SCCF:11:1,2013-04-03T00:00:00Z,26.4679,-82.0631,1.985,7.89,1111122 
SCCF RECON,ioos:station:SCCF:11:1,2013-04-03T01:00:00Z,26.4679,-82.0631,1.896,7.95,1111122 
SCCF RECON,ioos:station:SCCF:11:1,2013-04-03T02:00:00Z,26.4679,-82.0631,1.79,7.56,1111122 
SCCF RECON,ioos:station:SCCF:11:1,2013-04-03T03:00:00Z,26.4679,-82.0631,1.68,7.33,1111122 
SCCF RECON,ioos:station:SCCF:11:1,2013-04-03T04:00:00Z,26.4679,-82.0631,1.58,7.12,1111122 
SCCF RECON,ioos:station:SCCF:11:1,2013-04-03T05:00:00Z,26.4679,-82.0631,1.48,6.87,1111122 
SCCF RECON,ioos:station:SCCF:11:1,2013-04-03T06:00:00Z,26.4679,-82.0631,1.43,6.5,1111122 
SCCF RECON,ioos:station:SCCF:11:1,2013-04-03T07:00:00Z,26.4679,-82.0631,1.413,6.3,1111122 
SCCF RECON,ioos:station:SCCF:11:1,2013-04-03T08:00:00Z,26.4679,-82.0631,1.5,5.94,1111122 
SCCF RECON,ioos:station:SCCF:11:1,2013-04-03T09:00:00Z,26.4679,-82.0631,1.6,6.08,1111122 
SCCF RECON,ioos:station:SCCF:11:1,2013-04-03T10:00:00Z,26.4679,-82.0631,1.7,6.18,1111122 
SCCF RECON,ioos:station:SCCF:11:1,2013-04-03T11:00:00Z,26.4679,-82.0631,1.79,6.12,1111122 
SCCF RECON,ioos:station:SCCF:11:1,2013-04-03T12:00:00Z,26.4679,-82.0631,1.871,5.89,1111122 
SCCF RECON,ioos:station:SCCF:11:1,2013-04-03T13:00:00Z,26.4679,-82.0631,1.917,6.41,1111122 
SCCF RECON,ioos:station:SCCF:11:1,2013-04-03T14:00:00Z,26.4679,-82.0631,1.91,6.42,1111122 
SCCF RECON,ioos:station:SCCF:11:1,2013-04-03T15:00:00Z,26.4679,-82.0631,1.906,6.58,1111122 
SCCF RECON,ioos:station:SCCF:11:1,2013-04-03T16:00:00Z,26.4679,-82.0631,1.87,6.41,1111122 
SCCF RECON,ioos:station:SCCF:11:1,2013-04-03T17:00:00Z,26.4679,-82.0631,1.85,6.56,1111122 
SCCF RECON,ioos:station:SCCF:11:1,2013-04-03T18:00:00Z,26.4679,-82.0631,1.832,7.71,1111122 
SCCF RECON,ioos:station:SCCF:11:1,2013-04-03T19:00:00Z,26.4679,-82.0631,1.871,7.77,1111122 
SCCF RECON,ioos:station:SCCF:11:1,2013-04-03T20:00:00Z,26.4679,-82.0631,1.94,7.8,1111122 
SCCF RECON,ioos:station:SCCF:11:1,2013-04-03T21:00:00Z,26.4679,-82.0631,2.01,7.63,1111122 
SCCF RECON,ioos:station:SCCF:11:1,2013-04-03T22:00:00Z,26.4679,-82.0631,2.06,7.45,1111122 
SCCF RECON,ioos:station:SCCF:11:1,2013-04-03T23:00:00Z,26.4679,-82.0631,2.08,7.28,1111122 
SCCF RECON,ioos:station:SCCF:11:1,2013-04-04T00:00:00Z,26.4679,-82.0631,2.07,7.06,1111122 
SCCF RECON,ioos:station:SCCF:11:1,2013-04-04T01:00:00Z,26.4679,-82.0631,2.04,7.11,1111122 
SCCF RECON,ioos:station:SCCF:11:1,2013-04-04T02:00:00Z,26.4679,-82.0631,2.006,7.31,1111122 
SCCF RECON,ioos:station:SCCF:11:1,2013-04-04T03:00:00Z,26.4679,-82.0631,1.91,7.03,1111122 
SCCF RECON,ioos:station:SCCF:11:1,2013-04-04T04:00:00Z,26.4679,-82.0631,1.82,6.79,1111122 
SCCF RECON,ioos:station:SCCF:11:1,2013-04-04T05:00:00Z,26.4679,-82.0631,1.67,6.66,1111122 
SCCF RECON,ioos:station:SCCF:11:1,2013-04-04T06:00:00Z,26.4679,-82.0631,1.52,6.45,1111122 
SCCF RECON,ioos:station:SCCF:11:1,2013-04-04T07:00:00Z,26.4679,-82.0631,1.45,6.12,1111122 
SCCF RECON,ioos:station:SCCF:11:1,2013-04-04T08:00:00Z,26.4679,-82.0631,1.522,5.9,1111122 
SCCF RECON,ioos:station:SCCF:11:1,2013-04-04T09:00:00Z,26.4679,-82.0631,1.62,5.95,1111122 
SCCF RECON,ioos:station:SCCF:11:1,2013-04-04T10:00:00Z,26.4679,-82.0631,1.68,6.26,1111122 
SCCF RECON,ioos:station:SCCF:11:1,2013-04-04T11:00:00Z,26.4679,-82.0631,1.735,6.23,1111122 
SCCF RECON,ioos:station:SCCF:11:1,2013-04-04T12:00:00Z,26.4679,-82.0631,1.81,6.13,1111122 
SCCF RECON,ioos:station:SCCF:11:1,2013-04-04T13:00:00Z,26.4679,-82.0631,1.88,6.18,1111122 
SCCF RECON,ioos:station:SCCF:11:1,2013-04-04T14:00:00Z,26.4679,-82.0631,1.928,6.39,1111122 
SCCF RECON,ioos:station:SCCF:11:1,2013-04-04T15:00:00Z,26.4679,-82.0631,1.97,6.85,1111122 
SCCF RECON,ioos:station:SCCF:11:1,2013-04-04T16:00:00Z,26.4679,-82.0631,1.99,6.73,1111122 
SCCF RECON,ioos:station:SCCF:11:1,2013-04-04T17:00:00Z,26.4679,-82.0631,1.95,6.83,1111122 
SCCF RECON,ioos:station:SCCF:11:1,2013-04-04T18:00:00Z,26.4679,-82.0631,1.861,7.12,1111122 
SCCF RECON,ioos:station:SCCF:11:1,2013-04-04T19:00:00Z,26.4679,-82.0631,1.847,6.96,1111122 
SCCF RECON,ioos:station:SCCF:11:1,2013-04-04T20:00:00Z,26.4679,-82.0631,1.791,6.92,1111122 
SCCF RECON,ioos:station:SCCF:11:1,2013-04-04T21:00:00Z,26.4679,-82.0631,1.74,6.74,1111122 
SCCF RECON,ioos:station:SCCF:11:1,2013-04-04T22:00:00Z,26.4679,-82.0631,1.646,6.62,1111122 
SCCF RECON,ioos:station:SCCF:11:1,2013-04-04T23:00:00Z,26.4679,-82.0631,1.7,6.61,1111122 
SCCF RECON,ioos:station:SCCF:11:1,2013-04-05T00:00:00Z,26.4679,-82.0631,1.915,6.62,1111122 
SCCF RECON,ioos:station:SCCF:11:1,2013-04-05T01:00:00Z,26.4679,-82.0631,2.031,6.59,1111122 
SCCF RECON,ioos:station:SCCF:11:1,2013-04-05T02:00:00Z,26.4679,-82.0631,2.08,6.35,1111122 
SCCF RECON,ioos:station:SCCF:11:1,2013-04-05T03:00:00Z,26.4679,-82.0631,2.02,6.54,1111122 
SCCF RECON,ioos:station:SCCF:11:1,2013-04-05T04:00:00Z,26.4679,-82.0631,1.86,6.23,1111122 
SCCF RECON,ioos:station:SCCF:11:1,2013-04-05T05:00:00Z,26.4679,-82.0631,1.7,5.85,1111122 
SCCF RECON,ioos:station:SCCF:11:1,2013-04-05T06:00:00Z,26.4679,-82.0631,1.595,5.66,1111122 
SCCF RECON,ioos:station:SCCF:11:1,2013-04-05T07:00:00Z,26.4679,-82.0631,1.439,5.61,1111122 
SCCF RECON,ioos:station:SCCF:11:1,2013-04-05T08:00:00Z,26.4679,-82.0631,1.31,5.54,1111122 
SCCF RECON,ioos:station:SCCF:11:1,2013-04-05T09:00:00Z,26.4679,-82.0631,1.431,5.39,1111122 
SCCF RECON,ioos:station:SCCF:11:1,2013-04-05T10:00:00Z,26.4679,-82.0631,1.62,5.47,1111122 
SCCF RECON,ioos:station:SCCF:11:1,2013-04-05T11:00:00Z,26.4679,-82.0631,1.713,5.49,1111122 
SCCF RECON,ioos:station:SCCF:11:1,2013-04-05T12:00:00Z,26.4679,-82.0631,1.887,5.6,1111122 
SCCF RECON,ioos:station:SCCF:11:1,2013-04-05T13:00:00Z,26.4679,-82.0631,1.894,5.83,1111122 
SCCF RECON,ioos:station:SCCF:11:1,2013-04-05T14:00:00Z,26.4679,-82.0631,2.029,6.11,1111122 
SCCF RECON,ioos:station:SCCF:11:1,2013-04-05T15:00:00Z,26.4679,-82.0631,2.034,6.17,1111122 
SCCF RECON,ioos:station:SCCF:11:1,2013-04-05T16:00:00Z,26.4679,-82.0631,1.999,6.19,1111122 
SCCF RECON,ioos:station:SCCF:11:1,2013-04-05T17:00:00Z,26.4679,-82.0631,1.91,6.17,1111122 
SCCF RECON,ioos:station:SCCF:11:1,2013-04-05T18:00:00Z,26.4679,-82.0631,1.884,6.3,1111122 
SCCF RECON,ioos:station:SCCF:11:1,2013-04-05T19:00:00Z,26.4679,-82.0631,1.776,6.56,1111122 
SCCF RECON,ioos:station:SCCF:11:1,2013-04-05T20:00:00Z,26.4679,-82.0631,1.718,6.59,1111122 
SCCF RECON,ioos:station:SCCF:11:1,2013-04-05T21:00:00Z,26.4679,-82.0631,1.712,6.94,1111122 
SCCF RECON,ioos:station:SCCF:11:1,2013-04-05T22:00:00Z,26.4679,-82.0631,1.683,7.1,1111122 
SCCF RECON,ioos:station:SCCF:11:1,2013-04-05T23:00:00Z,26.4679,-82.0631,1.723,6.98,1111122 
SCCF RECON,ioos:station:SCCF:11:1,2013-04-06T00:00:00Z,26.4679,-82.0631,1.819,6.84,1111122 
SCCF RECON,ioos:station:SCCF:11:1,2013-04-06T01:00:00Z,26.4679,-82.0631,1.893,6.7,1111122 
SCCF RECON,ioos:station:SCCF:11:1,2013-04-06T02:00:00Z,26.4679,-82.0631,1.903,6.68,1111122 
SCCF RECON,ioos:station:SCCF:11:1,2013-04-06T03:00:00Z,26.4679,-82.0631,1.932,6.6,1111122 
SCCF RECON,ioos:station:SCCF:11:1,2013-04-06T04:00:00Z,26.4679,-82.0631,1.875,6.54,1111122 
SCCF RECON,ioos:station:SCCF:11:1,2013-04-06T05:00:00Z,26.4679,-82.0631,1.79,6.52,1111122 
SCCF RECON,ioos:station:SCCF:11:1,2013-04-06T06:00:00Z,26.4679,-82.0631,1.686,6.35,1111122 
SCCF RECON,ioos:station:SCCF:11:1,2013-04-06T07:00:00Z,26.4679,-82.0631,1.562,6.27,1111122 
SCCF RECON,ioos:station:SCCF:11:1,2013-04-06T08:00:00Z,26.4679,-82.0631,1.449,6.22,1111122 
SCCF RECON,ioos:station:SCCF:11:1,2013-04-06T09:00:00Z,26.4679,-82.0631,1.358,6.08,1111122 
SCCF RECON,ioos:station:SCCF:11:1,2013-04-06T10:00:00Z,26.4679,-82.0631,1.33,6.07,1111122 
SCCF RECON,ioos:station:SCCF:11:1,2013-04-06T11:00:00Z,26.4679,-82.0631,1.41,5.86,1111122 
SCCF RECON,ioos:station:SCCF:11:1,2013-04-06T12:00:00Z,26.4679,-82.0631,1.532,5.96,1111122 
SCCF RECON,ioos:station:SCCF:11:1,2013-04-06T13:00:00Z,26.4679,-82.0631,1.681,6.35,1111122 
SCCF RECON,ioos:station:SCCF:11:1,2013-04-06T14:00:00Z,26.4679,-82.0631,1.781,6.64,1111122 
SCCF RECON,ioos:station:SCCF:11:1,2013-04-06T15:00:00Z,26.4679,-82.0631,1.842,6.85,1111122 
SCCF RECON,ioos:station:SCCF:11:1,2013-04-06T16:00:00Z,26.4679,-82.0631,1.891,7.05,1111122 
SCCF RECON,ioos:station:SCCF:11:1,2013-04-06T17:00:00Z,26.4679,-82.0631,1.89,6.97,1111122 
SCCF RECON,ioos:station:SCCF:11:1,2013-04-06T18:00:00Z,26.4679,-82.0631,1.746,7.54,1111122 
SCCF RECON,ioos:station:SCCF:11:1,2013-04-06T19:00:00Z,26.4679,-82.0631,1.629,8.29,1111122 
SCCF RECON,ioos:station:SCCF:11:1,2013-04-06T20:00:00Z,26.4679,-82.0631,1.567,8.66,1111122 
SCCF RECON,ioos:station:SCCF:11:1,2013-04-06T21:00:00Z,26.4679,-82.0631,1.527,8.57,1111122 
SCCF RECON,ioos:station:SCCF:11:1,2013-04-06T22:00:00Z,26.4679,-82.0631,1.521,8.8,1111122 
SCCF RECON,ioos:station:SCCF:11:1,2013-04-06T23:00:00Z,26.4679,-82.0631,1.579,8.53,1111122 
SCCF RECON,ioos:station:SCCF:11:1,2013-04-07T00:00:00Z,26.4679,-82.0631,1.69,8.2,1111122 
SCCF RECON,ioos:station:SCCF:11:1,2013-04-07T01:00:00Z,26.4679,-82.0631,1.799,8.1,1111122 
SCCF RECON,ioos:station:SCCF:11:1,2013-04-07T02:00:00Z,26.4679,-82.0631,1.883,7.9,1111122 
SCCF RECON,ioos:station:SCCF:11:1,2013-04-07T03:00:00Z,26.4679,-82.0631,1.94,7.76,1111122 
SCCF RECON,ioos:station:SCCF:11:1,2013-04-07T04:00:00Z,26.4679,-82.0631,1.95,7.64,1111122 
SCCF RECON,ioos:station:SCCF:11:1,2013-04-07T05:00:00Z,26.4679,-82.0631,1.9,7.5,1111122 
SCCF RECON,ioos:station:SCCF:11:1,2013-04-07T06:00:00Z,26.4679,-82.0631,1.772,7.19,1111122 
SCCF RECON,ioos:station:SCCF:11:1,2013-04-07T07:00:00Z,26.4679,-82.0631,1.646,6.91,1111122 
SCCF RECON,ioos:station:SCCF:11:1,2013-04-07T08:00:00Z,26.4679,-82.0631,1.512,6.89,1111122 
SCCF RECON,ioos:station:SCCF:11:1,2013-04-07T09:00:00Z,26.4679,-82.0631,1.408,6.81,1111122 
SCCF RECON,ioos:station:SCCF:11:1,2013-04-07T10:00:00Z,26.4679,-82.0631,1.38,6.7,1111122 
SCCF RECON,ioos:station:SCCF:11:1,2013-04-07T11:00:00Z,26.4679,-82.0631,1.429,6.47,1111122 
SCCF RECON,ioos:station:SCCF:11:1,2013-04-07T12:00:00Z,26.4679,-82.0631,1.56,6.37,1111122 
SCCF RECON,ioos:station:SCCF:11:1,2013-04-07T13:00:00Z,26.4679,-82.0631,1.71,6.65,1111122 
SCCF RECON,ioos:station:SCCF:11:1,2013-04-07T14:00:00Z,26.4679,-82.0631,1.828,7.05,1111122 
SCCF RECON,ioos:station:SCCF:11:1,2013-04-07T15:00:00Z,26.4679,-82.0631,1.908,7.13,1111122 
SCCF RECON,ioos:station:SCCF:11:1,2013-04-07T16:00:00Z,26.4679,-82.0631,1.94,7.3,1111122 
SCCF RECON,ioos:station:SCCF:11:1,2013-04-07T17:00:00Z,26.4679,-82.0631,1.92,7.21,1111122 
SCCF RECON,ioos:station:SCCF:11:1,2013-04-07T18:00:00Z,26.4679,-82.0631,1.811,7.56,1111122 
SCCF RECON,ioos:station:SCCF:11:1,2013-04-07T19:00:00Z,26.4679,-82.0631,1.685,8.04,1111122 
SCCF RECON,ioos:station:SCCF:11:1,2013-04-07T20:00:00Z,26.4679,-82.0631,1.579,8.76,1111122 
SCCF RECON,ioos:station:SCCF:11:1,2013-04-07T21:00:00Z,26.4679,-82.0631,1.472,8.78,1111122 
SCCF RECON,ioos:station:SCCF:11:1,2013-04-07T22:00:00Z,26.4679,-82.0631,1.397,9.22,1111122 
SCCF RECON,ioos:station:SCCF:11:1,2013-04-07T23:00:00Z,26.4679,-82.0631,1.392,9.74,1111122 
SCCF RECON,ioos:station:SCCF:11:1,2013-04-08T00:00:00Z,26.4679,-82.0631,1.51,8.98,1111122 
SCCF RECON,ioos:station:SCCF:11:1,2013-04-08T01:00:00Z,26.4679,-82.0631,1.67,8.7,1111122 
SCCF RECON,ioos:station:SCCF:11:1,2013-04-08T02:00:00Z,26.4679,-82.0631,1.782,7.94,1111122 
SCCF RECON,ioos:station:SCCF:11:1,2013-04-08T03:00:00Z,26.4679,-82.0631,1.88,7.67,1111122 
SCCF RECON,ioos:station:SCCF:11:1,2013-04-08T04:00:00Z,26.4679,-82.0631,1.96,7.38,1111122 
SCCF RECON,ioos:station:SCCF:11:1,2013-04-08T05:00:00Z,26.4679,-82.0631,1.98,7.12,1111122 
SCCF RECON,ioos:station:SCCF:11:1,2013-04-08T06:00:00Z,26.4679,-82.0631,1.92,7.1,1111122 
SCCF RECON,ioos:station:SCCF:11:1,2013-04-08T07:00:00Z,26.4679,-82.0631,1.79,7.18,1111122 
SCCF RECON,ioos:station:SCCF:11:1,2013-04-08T08:00:00Z,26.4679,-82.0631,1.66,7.05,1111122 
SCCF RECON,ioos:station:SCCF:11:1,2013-04-08T09:00:00Z,26.4679,-82.0631,1.55,6.75,1111122 
SCCF RECON,ioos:station:SCCF:11:1,2013-04-08T10:00:00Z,26.4679,-82.0631,1.47,6.51,1111122 
SCCF RECON,ioos:station:SCCF:11:1,2013-04-08T11:00:00Z,26.4679,-82.0631,1.45,6.34,1111122 
SCCF RECON,ioos:station:SCCF:11:1,2013-04-08T12:00:00Z,26.4679,-82.0631,1.53,6.21,1111122 
SCCF RECON,ioos:station:SCCF:11:1,2013-04-08T13:00:00Z,26.4679,-82.0631,1.7,6.81,1111122 
SCCF RECON,ioos:station:SCCF:11:1,2013-04-08T14:00:00Z,26.4679,-82.0631,1.847,7.2,1111122 
SCCF RECON,ioos:station:SCCF:11:1,2013-04-08T15:00:00Z,26.4679,-82.0631,1.942,7.73,1111122 
SCCF RECON,ioos:station:SCCF:11:1,2013-04-08T16:00:00Z,26.4679,-82.0631,2.01,8.01,1111122 
SCCF RECON,ioos:station:SCCF:11:1,2013-04-08T17:00:00Z,26.4679,-82.0631,2.021,7.05,1111122 
SCCF RECON,ioos:station:SCCF:11:1,2013-04-08T18:00:00Z,26.4679,-82.0631,1.959,7.43,1111122 
SCCF RECON,ioos:station:SCCF:11:1,2013-04-08T19:00:00Z,26.4679,-82.0631,1.82,8.11,1111122 
SCCF RECON,ioos:station:SCCF:11:1,2013-04-08T20:00:00Z,26.4679,-82.0631,1.69,8.79,1111122 
SCCF RECON,ioos:station:SCCF:11:1,2013-04-08T21:00:00Z,26.4679,-82.0631,1.57,8.89,1111122 
SCCF RECON,ioos:station:SCCF:11:1,2013-04-08T22:00:00Z,26.4679,-82.0631,1.469,9.05,1111122 
SCCF RECON,ioos:station:SCCF:11:1,2013-04-08T23:00:00Z,26.4679,-82.0631,1.4,9.06,1111122 
SCCF RECON,ioos:station:SCCF:11:1,2013-04-09T00:00:00Z,26.4679,-82.0631,1.44,9.04,1111122 
SCCF RECON,ioos:station:SCCF:11:1,2013-04-09T01:00:00Z,26.4679,-82.0631,1.579,8.65,1111122 
SCCF RECON,ioos:station:SCCF:11:1,2013-04-09T02:00:00Z,26.4679,-82.0631,1.75,8.56,1111122 
SCCF RECON,ioos:station:SCCF:11:1,2013-04-09T03:00:00Z,26.4679,-82.0631,1.88,8.33,1111122 
SCCF RECON,ioos:station:SCCF:11:1,2013-04-09T04:00:00Z,26.4679,-82.0631,1.98,8.07,1111122 
SCCF RECON,ioos:station:SCCF:11:1,2013-04-09T05:00:00Z,26.4679,-82.0631,2.05,7.71,1111122 
SCCF RECON,ioos:station:SCCF:11:1,2013-04-09T06:00:00Z,26.4679,-82.0631,2.021,7.29,1111122 
SCCF RECON,ioos:station:SCCF:11:1,2013-04-09T07:00:00Z,26.4679,-82.0631,1.91,7.52,1111122 
SCCF RECON,ioos:station:SCCF:11:1,2013-04-09T08:00:00Z,26.4679,-82.0631,1.77,7.31,1111122 
SCCF RECON,ioos:station:SCCF:11:1,2013-04-09T09:00:00Z,26.4679,-82.0631,1.67,6.92,1111122 
SCCF RECON,ioos:station:SCCF:11:1,2013-04-09T10:00:00Z,26.4679,-82.0631,1.58,6.69,1111122 
SCCF RECON,ioos:station:SCCF:11:1,2013-04-09T11:00:00Z,26.4679,-82.0631,1.5,6.32,1111122 
SCCF RECON,ioos:station:SCCF:11:1,2013-04-09T12:00:00Z,26.4679,-82.0631,1.51,6.01,1111122 
SCCF RECON,ioos:station:SCCF:11:1,2013-04-09T13:00:00Z,26.4679,-82.0631,1.65,6.56,1111122 
SCCF RECON,ioos:station:SCCF:11:1,2013-04-09T14:00:00Z,26.4679,-82.0631,1.83,7.03,1111122 
SCCF RECON,ioos:station:SCCF:11:1,2013-04-09T15:00:00Z,26.4679,-82.0631,1.958,7.1,1111122 
SCCF RECON,ioos:station:SCCF:11:1,2013-04-09T16:00:00Z,26.4679,-82.0631,2.04,7.38,1111122 
SCCF RECON,ioos:station:SCCF:11:1,2013-04-09T17:00:00Z,26.4679,-82.0631,2.083,7.34,1111122 
SCCF RECON,ioos:station:SCCF:11:1,2013-04-09T18:00:00Z,26.4679,-82.0631,2.04,7.53,1111122 
SCCF RECON,ioos:station:SCCF:11:1,2013-04-09T19:00:00Z,26.4679,-82.0631,1.91,8.54,1111122 
SCCF RECON,ioos:station:SCCF:11:1,2013-04-09T20:00:00Z,26.4679,-82.0631,1.76,8.71,1111122 
SCCF RECON,ioos:station:SCCF:11:1,2013-04-09T21:00:00Z,26.4679,-82.0631,1.639,8.72,1111122 
SCCF RECON,ioos:station:SCCF:11:1,2013-04-09T22:00:00Z,26.4679,-82.0631,1.511,8.72,1111122 
SCCF RECON,ioos:station:SCCF:11:1,2013-04-09T23:00:00Z,26.4679,-82.0631,1.402,8.59,1111122 
SCCF RECON,ioos:station:SCCF:11:1,2013-04-10T00:00:00Z,26.4679,-82.0631,1.35,8.33,1111122 
SCCF RECON,ioos:station:SCCF:11:1,2013-04-10T01:00:00Z,26.4679,-82.0631,1.4,8.33,1111122 
SCCF RECON,ioos:station:SCCF:11:1,2013-04-10T02:00:00Z,26.4679,-82.0631,1.586,8.21,1111122 
SCCF RECON,ioos:station:SCCF:11:1,2013-04-10T03:00:00Z,26.4679,-82.0631,1.75,7.67,1111122 
SCCF RECON,ioos:station:SCCF:11:1,2013-04-10T04:00:00Z,26.4679,-82.0631,1.872,7.21,1111122 
SCCF RECON,ioos:station:SCCF:11:1,2013-04-10T05:00:00Z,26.4679,-82.0631,1.972,7.46,1111122 
SCCF RECON,ioos:station:SCCF:11:1,2013-04-10T06:00:00Z,26.4679,-82.0631,2.01,7.17,1111122 
SCCF RECON,ioos:station:SCCF:11:1,2013-04-10T07:00:00Z,26.4679,-82.0631,1.96,7.04,1111122 
SCCF RECON,ioos:station:SCCF:11:1,2013-04-10T08:00:00Z,26.4679,-82.0631,1.84,7.06,1111122 
SCCF RECON,ioos:station:SCCF:11:1,2013-04-10T09:00:00Z,26.4679,-82.0631,1.715,6.73,1111122 
SCCF RECON,ioos:station:SCCF:11:1,2013-04-10T10:00:00Z,26.4679,-82.0631,1.63,6.23,1111122 
SCCF RECON,ioos:station:SCCF:11:1,2013-04-10T11:00:00Z,26.4679,-82.0631,1.57,5.82,1111122 
SCCF RECON,ioos:station:SCCF:11:1,2013-04-10T12:00:00Z,26.4679,-82.0631,1.55,5.34,1111122 
SCCF RECON,ioos:station:SCCF:11:1,2013-04-10T13:00:00Z,26.4679,-82.0631,1.632,5.38,1111122 
SCCF RECON,ioos:station:SCCF:11:1,2013-04-10T14:00:00Z,26.4679,-82.0631,1.78,6.26,1111122 
SCCF RECON,ioos:station:SCCF:11:1,2013-04-10T15:00:00Z,26.4679,-82.0631,1.911,6.66,1111122 
SCCF RECON,ioos:station:SCCF:11:1,2013-04-10T16:00:00Z,26.4679,-82.0631,2.014,6.57,1111122 
SCCF RECON,ioos:station:SCCF:11:1,2013-04-10T17:00:00Z,26.4679,-82.0631,2.08,6.56,1111122 
SCCF RECON,ioos:station:SCCF:11:1,2013-04-10T18:00:00Z,26.4679,-82.0631,2.079,7.16,1111122 
SCCF RECON,ioos:station:SCCF:11:1,2013-04-10T19:00:00Z,26.4679,-82.0631,2.0,7.45,1111122 
SCCF RECON,ioos:station:SCCF:11:1,2013-04-10T20:00:00Z,26.4679,-82.0631,1.849,8.81,1111122 
SCCF RECON,ioos:station:SCCF:11:1,2013-04-10T21:00:00Z,26.4679,-82.0631,1.694,8.6,1111122 
SCCF RECON,ioos:station:SCCF:11:1,2013-04-10T22:00:00Z,26.4679,-82.0631,1.58,8.6,1111122 
SCCF RECON,ioos:station:SCCF:11:1,2013-04-10T23:00:00Z,26.4679,-82.0631,1.448,8.47,1111122 
SCCF RECON,ioos:station:SCCF:11:1,2013-04-11T00:00:00Z,26.4679,-82.0631,1.35,8.17,1111122 
SCCF RECON,ioos:station:SCCF:11:1,2013-04-11T01:00:00Z,26.4679,-82.0631,1.312,7.98,1111122 
SCCF RECON,ioos:station:SCCF:11:1,2013-04-11T02:00:00Z,26.4679,-82.0631,1.43,7.6,1111122 
SCCF RECON,ioos:station:SCCF:11:1,2013-04-11T03:00:00Z,26.4679,-82.0631,1.61,7.7,1111122 
SCCF RECON,ioos:station:SCCF:11:1,2013-04-11T04:00:00Z,26.4679,-82.0631,1.77,7.51,1111122 
SCCF RECON,ioos:station:SCCF:11:1,2013-04-11T05:00:00Z,26.4679,-82.0631,1.88,7.37,1111122 
SCCF RECON,ioos:station:SCCF:11:1,2013-04-11T06:00:00Z,26.4679,-82.0631,1.96,7.24,1111122 
SCCF RECON,ioos:station:SCCF:11:1,2013-04-11T07:00:00Z,26.4679,-82.0631,1.95,6.88,1111122 
SCCF RECON,ioos:station:SCCF:11:1,2013-04-11T08:00:00Z,26.4679,-82.0631,1.89,6.86,1111122 
SCCF RECON,ioos:station:SCCF:11:1,2013-04-11T09:00:00Z,26.4679,-82.0631,1.791,6.86,1111122 
SCCF RECON,ioos:station:SCCF:11:1,2013-04-11T10:00:00Z,26.4679,-82.0631,1.719,6.53,1111122 
SCCF RECON,ioos:station:SCCF:11:1,2013-04-11T11:00:00Z,26.4679,-82.0631,1.65,6.19,1111122 
SCCF RECON,ioos:station:SCCF:11:1,2013-04-11T12:00:00Z,26.4679,-82.0631,1.59,6.27,1111122 
SCCF RECON,ioos:station:SCCF:11:1,2013-04-11T13:00:00Z,26.4679,-82.0631,1.62,6.23,1111122 
SCCF RECON,ioos:station:SCCF:11:1,2013-04-11T14:00:00Z,26.4679,-82.0631,1.74,6.71,1111122 
SCCF RECON,ioos:station:SCCF:11:1,2013-04-11T15:00:00Z,26.4679,-82.0631,1.88,6.9,1111122 
SCCF RECON,ioos:station:SCCF:11:1,2013-04-11T16:00:00Z,26.4679,-82.0631,1.976,6.95,1111122 
SCCF RECON,ioos:station:SCCF:11:1,2013-04-11T17:00:00Z,26.4679,-82.0631,2.04,7.36,1111122 
SCCF RECON,ioos:station:SCCF:11:1,2013-04-11T18:00:00Z,26.4679,-82.0631,2.08,7.24,1111122 
SCCF RECON,ioos:station:SCCF:11:1,2013-04-11T19:00:00Z,26.4679,-82.0631,2.072,7.52,1111122 
SCCF RECON,ioos:station:SCCF:11:1,2013-04-11T20:00:00Z,26.4679,-82.0631,2.0,7.46,1111122 